• In Uzbekistan
  • List of Countries
  • For 7 days
  • Water Temperature
  • Satellite Maps
  • Weather Map
  • Weather Widgets
  • user-avatar
    Login

    Hourly Weather Linz

    Today, 27 February, Monday

    Time Temperature Precipitation Wind Pressure Humidity
    00:00 +3°C° 0 mm 1 mps 732 mmHg 81%
    01:00 +3°C° 0 mm 1 mps 732 mmHg 78%
    02:00 +3°C° 0 mm 1 mps 732 mmHg 78%
    03:00 +3°C° 0 mm 1 mps 731 mmHg 78%
    04:00 +3°C° 0 mm 1 mps 731 mmHg 78%
    05:00 +3°C° 0 mm 1 mps 731 mmHg 79%
    06:00 +3°C° 0 mm 1 mps 731 mmHg 80%
    07:00 +3°C° 0 mm 1 mps 731 mmHg 81%
    08:00 +5°C° 0 mm 1 mps 730 mmHg 75%
    09:00 +7°C° 0 mm 1 mps 730 mmHg 69%
    10:00 +10°C° 0 mm 1 mps 730 mmHg 63%
    11:00 +11°C° 0 mm 1 mps 729 mmHg 61%
    12:00 +12°C° 0 mm 1 mps 729 mmHg 59%
    13:00 +12°C° 0 mm 1 mps 728 mmHg 57%
    14:00 +12°C° 0 mm 1 mps 727 mmHg 62%
    15:00 +12°C° 0 mm 1 mps 727 mmHg 67%
    16:00 +11°C° 0 mm 1 mps 726 mmHg 72%
    17:00 +9°C° 0 mm 1 mps 726 mmHg 77%
    18:00 +8°C° 0 mm 1 mps 726 mmHg 82%
    19:00 +5°C° 0 mm 2 mps 725 mmHg 88%
    20:00 +4°C° 0 mm 2 mps 725 mmHg 88%
    21:00 +4°C° 0 mm 2 mps 725 mmHg 89%
    22:00 +3°C° 0 mm 2 mps 725 mmHg 89%
    23:00 +3°C° 0 mm 2 mps 724 mmHg 89%

    Tomorrow, 28 February, Tuesday

    Time Temperature Precipitation Wind Pressure Humidity
    00:00 +3°C° 0 mm 2 mps 724 mmHg 88%
    01:00 +2°C° 0 mm 2 mps 724 mmHg 87%
    02:00 +2°C° 0 mm 2 mps 723 mmHg 87%
    03:00 +2°C° 0 mm 2 mps 722 mmHg 87%
    04:00 +3°C° 0 mm 1 mps 722 mmHg 87%
    05:00 +2°C° 0 mm 2 mps 721 mmHg 86%
    06:00 +2°C° 0 mm 2 mps 721 mmHg 86%
    07:00 +2°C° 0 mm 2 mps 720 mmHg 86%
    08:00 +2°C° 0 mm 3 mps 721 mmHg 83%
    09:00 +4°C° 0 mm 4 mps 722 mmHg 79%
    10:00 +6°C° 0 mm 5 mps 723 mmHg 76%
    11:00 +6°C° 0.1 mm 4 mps 723 mmHg 77%
    12:00 +5°C° 0.1 mm 3 mps 723 mmHg 77%
    13:00 +6°C° 0.1 mm 2 mps 723 mmHg 77%
    14:00 +6°C° 0.1 mm 2 mps 722 mmHg 80%
    15:00 +6°C° 0.1 mm 2 mps 721 mmHg 83%
    16:00 +4°C° 0.1 mm 3 mps 720 mmHg 85%
    17:00 +4°C° 0.1 mm 3 mps 720 mmHg 87%
    18:00 +4°C° 0.1 mm 3 mps 719 mmHg 89%
    19:00 +3°C° 0.1 mm 4 mps 719 mmHg 90%
    20:00 +2°C° 0.6 mm 5 mps 719 mmHg 91%
    21:00 +2°C° 0.6 mm 5 mps 719 mmHg 92%
    22:00 +2°C° 0.6 mm 6 mps 719 mmHg 93%
    23:00 +2°C° 0.4 mm 6 mps 720 mmHg 93%

    Day after tomorrow, 1 March, Wednesday

    Time Temperature Precipitation Wind Pressure Humidity
    00:00 +1°C° 0.4 mm 5 mps 721 mmHg 92%
    01:00 +1°C° 0.4 mm 5 mps 721 mmHg 92%
    02:00 +1°C° 0.3 mm 5 mps 722 mmHg 92%
    03:00 +1°C° 0.3 mm 5 mps 722 mmHg 92%
    04:00 +1°C° 0.3 mm 5 mps 722 mmHg 93%
    05:00 0°C° 0.1 mm 5 mps 723 mmHg 92%
    06:00 0°C° 0.1 mm 5 mps 723 mmHg 92%
    07:00 0°C° 0.1 mm 4 mps 724 mmHg 92%
    08:00 +1°C° 0 mm 5 mps 724 mmHg 88%
    09:00 +1°C° 0 mm 5 mps 725 mmHg 84%
    10:00 +2°C° 0 mm 5 mps 725 mmHg 81%
    11:00 +3°C° 0.1 mm 5 mps 725 mmHg 81%
    12:00 +3°C° 0.1 mm 6 mps 725 mmHg 80%
    13:00 +4°C° 0.1 mm 6 mps 725 mmHg 80%
    14:00 +4°C° 0.3 mm 7 mps 726 mmHg 81%
    15:00 +4°C° 0.3 mm 7 mps 726 mmHg 83%
    16:00 +4°C° 0.3 mm 7 mps 726 mmHg 84%
    17:00 +3°C° 0.2 mm 7 mps 727 mmHg 86%
    18:00 +2°C° 0.2 mm 6 mps 728 mmHg 89%
    19:00 +1°C° 0.2 mm 5 mps 729 mmHg 91%
    20:00 +1°C° 0.1 mm 4 mps 730 mmHg 92%
    21:00 0°C° 0.1 mm 4 mps 730 mmHg 93%
    22:00 +1°C° 0.1 mm 3 mps 731 mmHg 94%
    23:00 +1°C° 0 mm 3 mps 731 mmHg 94%

    2 March, Thursday

    Time Temperature Precipitation Wind Pressure Humidity
    00:00 +1°C° 0 mm 2 mps 731 mmHg 93%
    01:00 +1°C° 0 mm 2 mps 731 mmHg 93%
    02:00 +1°C° 0.3 mm 2 mps 730 mmHg 92%
    03:00 +2°C° 0.3 mm 2 mps 730 mmHg 91%
    04:00 +2°C° 0.3 mm 2 mps 730 mmHg 90%
    05:00 +2°C° 0.4 mm 2 mps 730 mmHg 91%
    06:00 +2°C° 0.4 mm 2 mps 730 mmHg 92%
    07:00 +3°C° 0.4 mm 2 mps 730 mmHg 93%
    08:00 +4°C° 0.2 mm 2 mps 730 mmHg 94%
    09:00 +5°C° 0.2 mm 2 mps 731 mmHg 94%
    10:00 +5°C° 0.2 mm 3 mps 731 mmHg 94%
    11:00 +5°C° 0.3 mm 3 mps 731 mmHg 94%
    12:00 +5°C° 0.3 mm 4 mps 732 mmHg 93%
    13:00 +6°C° 0.3 mm 4 mps 732 mmHg 93%
    14:00 +6°C° 0.1 mm 4 mps 732 mmHg 93%
    15:00 +6°C° 0.1 mm 4 mps 733 mmHg 92%
    16:00 +7°C° 0.1 mm 3 mps 733 mmHg 91%
    17:00 +5°C° 0 mm 3 mps 733 mmHg 93%
    18:00 +5°C° 0 mm 2 mps 734 mmHg 94%
    19:00 +3°C° 0 mm 2 mps 734 mmHg 96%
    20:00 +4°C° 0 mm 1 mps 734 mmHg 96%
    21:00 +3°C° 0 mm 1 mps 734 mmHg 96%
    22:00 +3°C° 0 mm 1 mps 734 mmHg 96%
    23:00 +3°C° 0 mm 1 mps 734 mmHg 95%

    3 March, Friday

    Time Temperature Precipitation Wind Pressure Humidity
    00:00 +4°C° 0 mm 1 mps 734 mmHg 94%
    01:00 +4°C° 0 mm 1 mps 734 mmHg 94%
    02:00 +3°C° 0 mm 2 mps 734 mmHg 93%
    03:00 +3°C° 0 mm 2 mps 733 mmHg 93%
    04:00 +3°C° 0 mm 2 mps 733 mmHg 92%
    05:00 +3°C° 0 mm 2 mps 732 mmHg 93%
    06:00 +3°C° 0 mm 2 mps 732 mmHg 94%
    07:00 +2°C° 0 mm 2 mps 732 mmHg 95%
    08:00 +4°C° 0 mm 2 mps 731 mmHg 91%
    09:00 +6°C° 0 mm 2 mps 731 mmHg 88%
    10:00 +8°C° 0 mm 2 mps 731 mmHg 85%
    11:00 +9°C° 0 mm 2 mps 730 mmHg 83%
    12:00 +10°C° 0 mm 2 mps 729 mmHg 81%
    13:00 +11°C° 0 mm 3 mps 729 mmHg 79%
    14:00 +11°C° 0 mm 3 mps 728 mmHg 81%
    15:00 +12°C° 0 mm 2 mps 727 mmHg 82%
    16:00 +12°C° 0 mm 2 mps 727 mmHg 84%
    17:00 +9°C° 0 mm 2 mps 726 mmHg 87%
    18:00 +7°C° 0 mm 2 mps 726 mmHg 90%
    19:00 +6°C° 0 mm 2 mps 725 mmHg 94%
    20:00 +5°C° 0 mm 2 mps 725 mmHg 93%
    21:00 +5°C° 0 mm 2 mps 725 mmHg 93%
    22:00 +5°C° 0 mm 2 mps 725 mmHg 93%
    23:00 +5°C° 0 mm 2 mps 725 mmHg 93%

    4 March, Saturday

    Time Temperature Precipitation Wind Pressure Humidity
    00:00 +5°C° 0 mm 2 mps 725 mmHg 92%
    01:00 +5°C° 0 mm 2 mps 726 mmHg 92%
    02:00 +4°C° 0 mm 2 mps 726 mmHg 93%
    03:00 +3°C° 0 mm 3 mps 727 mmHg 93%
    04:00 +3°C° 0 mm 3 mps 727 mmHg 93%
    05:00 +3°C° 0 mm 2 mps 727 mmHg 93%
    06:00 +3°C° 0 mm 2 mps 728 mmHg 93%
    07:00 +3°C° 0 mm 1 mps 728 mmHg 93%
    08:00 +4°C° 0 mm 2 mps 728 mmHg 88%
    09:00 +7°C° 0 mm 2 mps 728 mmHg 82%
    10:00 +9°C° 0 mm 2 mps 728 mmHg 77%
    11:00 +10°C° 0 mm 2 mps 728 mmHg 75%
    12:00 +11°C° 0 mm 3 mps 728 mmHg 73%
    13:00 +12°C° 0 mm 3 mps 727 mmHg 70%
    14:00 +12°C° 0 mm 3 mps 727 mmHg 74%
    15:00 +12°C° 0 mm 3 mps 727 mmHg 77%
    16:00 +12°C° 0 mm 3 mps 726 mmHg 80%
    17:00 +10°C° 0 mm 3 mps 726 mmHg 83%
    18:00 +9°C° 0 mm 3 mps 726 mmHg 86%
    19:00 +8°C° 0 mm 3 mps 726 mmHg 90%
    20:00 +8°C° 0 mm 3 mps 726 mmHg 89%
    21:00 +7°C° 0 mm 3 mps 726 mmHg 89%
    22:00 +7°C° 0 mm 3 mps 726 mmHg 89%
    23:00 +7°C° 0 mm 3 mps 726 mmHg 89%
    Show more